Weather History for New Castle, PA

Change the Weather History Date:

Saturday, April 6, 2013

  Actual Average Record
Temperature  
Mean Temperature 38 °F -  
Max Temperature 55 °F 55 °F 81 °F (1942)
Min Temperature 20 °F 32 °F 18 °F (1968)
Degree Days  
Heating Degree Days 28    
Moisture  
Dew Point 14 °F    
Average Humidity 45    
Maximum Humidity 85    
Minimum Humidity 14    
Precipitation  
Precipitation 0.00 in - - ()
Sea Level Pressure  
Sea Level Pressure 30.24 in    
Wind  
Wind Speed 3 mph (SSE)    
Max Wind Speed 9 mph    
Max Gust Speed -    
Visibility 10 miles    
Events      
Averages and records for this station are not official NWS values.
T = Trace of Precipitation, MM = Missing Value Source: NWS Daily Summary

Daily Weather History Graph

Daily Weather History Graph

Search for Another Location

Airport:

Trip Planner

Search our weather history database for the weather conditions in past years. The results will help you decide how hot, cold, wet, or windy it might be!

Date:

Astronomy

Apr. 06, 2013 Rise Set
Actual Time 6:56 AM EDT 7:52 PM EDT
Civil Twilight 6:28 AM EDT 8:20 PM EDT
Nautical Twilight 5:55 AM EDT 8:53 PM EDT
Astronomical Twilight 5:20 AM EDT 9:28 PM EDT
Moon 4:41 AM EDT (4/6) 4:17 PM EDT (4/6)
Length of Visible Light 13h 51m
Length of Day
12h 55m
Waning Crescent, 15% of the Moon is Illuminated
Apr 6
Waning Crescent
Apr 10
New
Apr 18
First Quarter
Apr 25
Full
May 2
Last Quarter

Hourly Weather History & Observations

Time (EDT) Temp. Windchill Dew Point Humidity Pressure Visibility Wind Dir Wind Speed Gust Speed Precip Events Conditions
12:56 AM 27.1 °F - 17.1 °F 66% 30.29 in 10.0 mi Calm Calm - N/A   Clear
1:56 AM 25.2 °F 20.9 °F 16.2 °F 69% 30.30 in 10.0 mi NW 3.5 mph - N/A   Clear
2:56 AM 24.1 °F - 16.2 °F 72% 30.29 in 10.0 mi Calm Calm - N/A   Clear
3:56 AM 21.0 °F - 16.2 °F 81% 30.29 in 10.0 mi Calm Calm - N/A   Clear
4:56 AM 21.0 °F - 17.1 °F 85% 30.31 in 10.0 mi Calm Calm - N/A   Clear
5:56 AM 20.1 °F - 16.2 °F 85% 30.32 in 10.0 mi Calm Calm - N/A   Clear
6:56 AM 20.1 °F - 16.2 °F 85% 30.34 in 10.0 mi Calm Calm - N/A   Mostly Cloudy
7:56 AM 25.2 °F - 20.1 °F 81% 30.38 in 10.0 mi Calm Calm - N/A   Overcast
8:56 AM 29.1 °F - 22.1 °F 75% 30.37 in 10.0 mi Calm Calm - N/A   Mostly Cloudy
9:56 AM 32.9 °F 25.9 °F 20.1 °F 59% 30.36 in 10.0 mi ESE 8.1 mph - N/A   Scattered Clouds
10:56 AM 37.4 °F 34.9 °F 17.6 °F 45% 30.29 in 10.0 mi Variable 3.5 mph - N/A   Mostly Cloudy
11:56 AM 41.9 °F 38.2 °F 16.2 °F 35% 30.35 in 10.0 mi Variable 5.8 mph - N/A   Partly Cloudy
12:56 PM 45.0 °F 42.6 °F 13.1 °F 28% 30.32 in 10.0 mi Variable 4.6 mph - N/A   Clear
1:56 PM 48.9 °F - 10.0 °F 21% 30.28 in 10.0 mi Variable 6.9 mph - N/A   Partly Cloudy
2:56 PM 52.0 °F - 11.1 °F 20% 30.25 in 10.0 mi Variable 5.8 mph - N/A   Clear
3:56 PM 52.9 °F - 11.1 °F 19% 30.21 in 10.0 mi SSW 9.2 mph - N/A   Clear
4:56 PM 55.4 °F - 6.8 °F 14% 30.12 in 10.0 mi South 9.2 mph - N/A   Clear
5:56 PM 54.9 °F - 9.1 °F 16% 30.19 in 10.0 mi SE 5.8 mph - N/A   Clear
6:56 PM 54.0 °F - 9.1 °F 17% 30.17 in 10.0 mi Variable 5.8 mph - N/A   Clear
7:56 PM 52.9 °F - 10.0 °F 18% 30.14 in 10.0 mi Variable 4.6 mph - N/A   Mostly Cloudy
8:56 PM 50.9 °F - 10.0 °F 19% 30.13 in 10.0 mi ESE 4.6 mph - N/A   Partly Cloudy
9:56 PM 50.9 °F - 11.1 °F 20% 30.11 in 10.0 mi SE 4.6 mph - N/A   Partly Cloudy
10:56 PM 51.8 °F - 10.4 °F 19% 30.02 in 10.0 mi SE 4.6 mph - N/A   Clear
11:56 PM 52.0 °F - 15.1 °F 23% 30.04 in 10.0 mi SE 9.2 mph - N/A   Clear